| time (UTC) | temp F | wind direction | speed knots | gust knots | rain 1hr in | rain 24hr in | rain mn in | humidity % | barometer mb |
| 20260504214205 | 65 | 283 | 6.1 | 10.4 | 0.00 | 0.00 | 0.00 | 70 | 1011.0 |
| 20260504213705 | 65 | 293 | 7.8 | 12.2 | 0.00 | 0.00 | 0.00 | 69 | 1011.0 |
| 20260504213204 | 65 | 302 | 8.7 | 13.0 | 0.00 | 0.00 | 0.00 | 68 | 1011.1 |
| 20260504212703 | 66 | 291 | 7.0 | 10.4 | 0.00 | 0.00 | 0.00 | 67 | 1011.1 |
| 20260504212205 | 66 | 286 | 5.2 | 7.8 | 0.00 | 0.00 | 0.00 | 68 | 1011.1 |
| 20260504211703 | 66 | 279 | 4.3 | 10.4 | 0.00 | 0.00 | 0.00 | 68 | 1011.1 |
| 20260504211203 | 67 | 306 | 7.0 | 11.3 | 0.00 | 0.00 | 0.00 | 65 | 1011.1 |
| 20260504210704 | 66 | 297 | 5.2 | 7.8 | 0.00 | 0.00 | 0.00 | 67 | 1011.1 |
| 20260504210204 | 66 | 282 | 5.2 | 8.7 | 0.00 | 0.00 | 0.00 | 66 | 1011.0 |
| 20260504205705 | 66 | 307 | 6.1 | 8.7 | 0.00 | 0.00 | 0.00 | 68 | 1011.0 |
| 20260504205205 | 66 | 292 | 6.1 | 10.4 | 0.00 | 0.00 | 0.00 | 68 | 1011.0 |
| 20260504204704 | 66 | 295 | 6.1 | 8.7 | 0.00 | 0.00 | 0.00 | 65 | 1011.0 |
| 20260504204205 | 66 | 283 | 6.1 | 10.4 | 0.00 | 0.00 | 0.00 | 64 | 1011.0 |
| 20260504203705 | 67 | 282 | 7.0 | 10.4 | 0.00 | 0.00 | 0.00 | 64 | 1011.0 |
| 20260504203205 | 67 | 284 | 7.0 | 10.4 | 0.00 | 0.00 | 0.00 | 64 | 1011.0 |
| 20260504202704 | 66 | 302 | 5.2 | 7.8 | 0.00 | 0.00 | 0.00 | 66 | 1011.0 |
| 20260504202205 | 66 | 281 | 6.1 | 7.8 | 0.00 | 0.00 | 0.00 | 66 | 1011.0 |
| 20260504200705 | 67 | 311 | 6.1 | 8.7 | 0.00 | 0.00 | 0.00 | 64 | 1011.1 |
| 20260504200204 | 67 | 284 | 5.2 | 7.8 | 0.00 | 0.00 | 0.00 | 64 | 1011.0 |
| 20260504195704 | 67 | 274 | 5.2 | 8.7 | 0.00 | 0.00 | 0.00 | 64 | 1011.0 |
| 20260504195206 | 67 | 265 | 5.2 | 8.7 | 0.00 | 0.00 | 0.00 | 64 | 1011.1 |
| 20260504194704 | 67 | 269 | 3.5 | 8.7 | 0.00 | 0.00 | 0.00 | 65 | 1011.0 |
| 20260504194204 | 67 | 307 | 4.3 | 7.8 | 0.00 | 0.00 | 0.00 | 65 | 1011.0 |
| 20260504193705 | 67 | 305 | 5.2 | 8.7 | 0.00 | 0.00 | 0.00 | 63 | 1011.0 |
| 20260504193204 | 68 | 296 | 7.8 | 10.4 | 0.00 | 0.00 | 0.00 | 60 | 1011.0 |
| 20260504192204 | 73 | 294 | 6.1 | 10.4 | 0.00 | 0.00 | 0.00 | 55 | 1010.9 |
| 20260504191203 | 74 | 276 | 5.2 | 7.8 | 0.00 | 0.00 | 0.00 | 53 | 1010.8 |
| 20260504190705 | 74 | 314 | 6.1 | 7.8 | 0.00 | 0.00 | 0.00 | 50 | 1010.8 |
| 20260504190204 | 74 | 274 | 2.6 | 7.0 | 0.00 | 0.00 | 0.00 | 52 | 1010.8 |
| 20260504185205 | 73 | 292 | 2.6 | 6.1 | 0.00 | 0.00 | 0.00 | 53 | 1010.8 |
| 20260504184704 | 74 | 303 | 4.3 | 7.8 | 0.00 | 0.00 | 0.00 | 52 | 1010.8 |
| 20260504183706 | 73 | 286 | 1.7 | 6.1 | 0.00 | 0.00 | 0.00 | 55 | 1010.9 |
| 20260504183204 | 73 | 311 | 1.7 | 4.3 | 0.00 | 0.00 | 0.00 | 56 | 1011.0 |
| 20260504182704 | 72 | 327 | 1.7 | 4.3 | 0.00 | 0.00 | 0.00 | 55 | 1011.0 |
| 20260504181205 | 71 | 277 | 2.6 | 7.0 | 0.00 | 0.00 | 0.00 | 54 | 1011.1 |
| 20260504180704 | 72 | 292 | 1.7 | 7.0 | 0.00 | 0.00 | 0.00 | 54 | 1011.1 |
| 20260504180205 | 72 | 306 | 2.6 | 6.1 | 0.00 | 0.00 | 0.00 | 58 | 1011.0 |
| 20260504175704 | 72 | 334 | 2.6 | 7.0 | 0.00 | 0.00 | 0.00 | 56 | 1011.0 |
| 20260504174704 | 71 | 323 | 2.6 | 7.0 | 0.00 | 0.00 | 0.00 | 58 | 1011.0 |
| 20260504173705 | 71 | 332 | 2.6 | 6.1 | 0.00 | 0.00 | 0.00 | 57 | 1011.0 |
| 20260504173204 | 71 | 322 | 2.6 | 4.3 | 0.00 | 0.00 | 0.00 | 57 | 1011.1 |
| 20260504172703 | 71 | 316 | 3.5 | 7.0 | 0.00 | 0.00 | 0.00 | 58 | 1011.1 |
| 20260504172205 | 71 | 294 | 3.5 | 7.0 | 0.00 | 0.00 | 0.00 | 57 | 1011.1 |
| 20260504171705 | 70 | 359 | 2.6 | 6.1 | 0.00 | 0.00 | 0.00 | 58 | 1011.1 |
| 20260504171204 | 70 | 310 | 4.3 | 8.7 | 0.00 | 0.00 | 0.00 | 56 | 1011.1 |
| 20260504170705 | 70 | 292 | 3.5 | 7.0 | 0.00 | 0.00 | 0.00 | 59 | 1011.2 |
| 20260504160204 | 69 | 287 | 3.5 | 7.0 | 0.00 | 0.00 | 0.00 | 58 | 1011.1 |
| 20260504150706 | 66 | 292 | 0.9 | 1.7 | 0.00 | 0.00 | 0.00 | 68 | 1010.6 |
| 20260504150204 | 64 | 290 | 0.0 | 0.9 | 0.00 | 0.00 | 0.00 | 67 | 1010.6 |
| 20260504141204 | 55 | 294 | 0.0 | 2.6 | 0.00 | 0.00 | 0.00 | 81 | 1010.4 |
| 20260504140203 | 54 | 263 | 1.7 | 2.6 | 0.00 | 0.00 | 0.00 | 81 | 1010.3 |
| 20260504130705 | 50 | 244 | 0.9 | 1.7 | 0.00 | 0.00 | 0.00 | 81 | 1010.0 |
| 20260504130204 | 50 | 244 | 0.9 | 1.7 | 0.00 | 0.00 | 0.00 | 82 | 1010.0 |
| 20260504120205 | 48 | 169 | 1.7 | 2.6 | 0.00 | 0.00 | 0.00 | 86 | 1010.1 |
| 20260504110705 | 49 | 232 | 0.9 | 2.6 | 0.00 | 0.00 | 0.00 | 81 | 1009.9 |
| 20260504110204 | 49 | 232 | 0.9 | 1.7 | 0.00 | 0.00 | 0.00 | 80 | 1009.9 |
| 20260504081703 | 60 | 180 | 2.6 | 5.2 | 0.00 | 0.00 | 0.00 | 61 | 1009.3 |
| 20260504081203 | 59 | 182 | 1.7 | 2.6 | 0.00 | 0.00 | 0.00 | 61 | 1009.3 |
| 20260504080705 | 59 | 187 | 1.7 | 2.6 | 0.00 | 0.00 | 0.00 | 63 | 1009.4 |
| 20260504080204 | 58 | 185 | 0.9 | 1.7 | 0.00 | 0.00 | 0.00 | 65 | 1009.4 |
| 20260504070204 | 53 | 215 | 1.7 | 2.6 | 0.00 | 0.00 | 0.00 | 79 | 1009.7 |
| 20260504060204 | 55 | 214 | 0.0 | 0.0 | 0.00 | 0.00 | 0.00 | 80 | 1010.0 |
| 20260504050705 | 59 | 214 | 0.0 | 0.0 | 0.00 | 0.00 | 0.00 | 70 | 1010.0 |
| 20260504050204 | 59 | 214 | 0.0 | 0.0 | 0.00 | 0.00 | 0.00 | 69 | 1010.0 |
| 20260504045704 | 60 | 214 | 0.0 | 0.0 | 0.00 | 0.00 | 0.00 | 69 | 1009.9 |
| 20260504045204 | 60 | 214 | 0.0 | 0.0 | 0.00 | 0.00 | 0.00 | 69 | 1010.0 |
| 20260504044705 | 60 | 291 | 0.0 | 0.0 | 0.00 | 0.00 | 0.00 | 68 | 1009.9 |
| 20260504044204 | 60 | 291 | 0.0 | 1.7 | 0.00 | 0.00 | 0.00 | 68 | 1009.9 |
| 20260504042204 | 61 | 223 | 0.0 | 0.0 | 0.00 | 0.00 | 0.00 | 67 | 1009.9 |
| 20260504041704 | 61 | 223 | 0.0 | 1.7 | 0.00 | 0.00 | 0.00 | 66 | 1009.9 |
| 20260504040704 | 61 | 209 | 0.9 | 2.6 | 0.00 | 0.00 | 0.00 | 68 | 1009.8 |
| 20260504040205 | 60 | 209 | 1.7 | 2.6 | 0.00 | 0.00 | 0.00 | 69 | 1009.8 |
| 20260504035205 | 63 | 194 | 1.7 | 2.6 | 0.00 | 0.00 | 0.00 | 65 | 1009.6 |
| 20260504034704 | 64 | 194 | 2.6 | 2.6 | 0.00 | 0.00 | 0.00 | 63 | 1009.6 |
| 20260504034204 | 65 | 193 | 1.7 | 2.6 | 0.00 | 0.00 | 0.00 | 61 | 1009.6 |
| 20260504033204 | 67 | 193 | 1.7 | 2.6 | 0.00 | 0.00 | 0.00 | 57 | 1009.6 |
| 20260504032205 | 69 | 211 | 0.9 | 1.7 | 0.00 | 0.00 | 0.00 | 54 | 1009.6 |
| 20260504031704 | 70 | 211 | 0.9 | 1.7 | 0.00 | 0.00 | 0.00 | 51 | 1009.5 |
| 20260504031205 | 71 | 211 | 0.0 | 0.9 | 0.00 | 0.00 | 0.00 | 51 | 1009.6 |
| 20260504030206 | 72 | 211 | 0.9 | 0.9 | 0.00 | 0.00 | 0.00 | 50 | 1009.6 |
| 20260504025704 | 72 | 211 | 0.9 | 1.7 | 0.00 | 0.00 | 0.00 | 49 | 1009.6 |
| 20260504025205 | 73 | 211 | 1.7 | 2.6 | 0.00 | 0.00 | 0.00 | 49 | 1009.7 |
| 20260504024703 | 74 | 211 | 1.7 | 2.6 | 0.00 | 0.00 | 0.00 | 47 | 1009.7 |
| 20260504024204 | 76 | 212 | 1.7 | 2.6 | 0.00 | 0.00 | 0.00 | 42 | 1009.7 |
| 20260504023706 | 77 | 191 | 1.7 | 2.6 | 0.00 | 0.00 | 0.00 | 39 | 1009.8 |
| 20260504023206 | 78 | 231 | 1.7 | 2.6 | 0.00 | 0.00 | 0.00 | 37 | 1009.8 |
| 20260504022704 | 78 | 272 | 0.9 | 2.6 | 0.00 | 0.00 | 0.00 | 35 | 1009.9 |
| 20260504022204 | 78 | 288 | 1.7 | 2.6 | 0.00 | 0.00 | 0.00 | 37 | 1010.0 |
| 20260504021203 | 78 | 286 | 1.7 | 2.6 | 0.00 | 0.00 | 0.00 | 36 | 1010.0 |
| 20260504020704 | 78 | 288 | 1.7 | 2.6 | 0.00 | 0.00 | 0.00 | 36 | 1010.0 |
| 20260504020203 | 78 | 289 | 2.6 | 2.6 | 0.00 | 0.00 | 0.00 | 34 | 1010.1 |
| 20260504014704 | 79 | 281 | 1.7 | 5.2 | 0.00 | 0.00 | 0.00 | 33 | 1010.2 |
| 20260504012704 | 79 | 207 | 2.6 | 4.3 | 0.00 | 0.00 | 0.00 | 35 | 1010.5 |
| 20260504012204 | 79 | 242 | 1.7 | 5.2 | 0.00 | 0.00 | 0.00 | 35 | 1010.4 |
| 20260504011704 | 79 | 211 | 2.6 | 6.1 | 0.00 | 0.00 | 0.00 | 35 | 1010.6 |
| 20260504011204 | 79 | 233 | 1.7 | 2.6 | 0.00 | 0.00 | 0.00 | 36 | 1010.6 |
| 20260504010704 | 79 | 298 | 1.7 | 2.6 | 0.00 | 0.00 | 0.00 | 35 | 1010.7 |
| 20260504010205 | 79 | 328 | 2.6 | 5.2 | 0.00 | 0.00 | 0.00 | 32 | 1010.7 |
| 20260504005206 | 79 | 273 | 2.6 | 6.1 | 0.00 | 0.00 | 0.00 | 34 | 1010.8 |
| 20260504004703 | 79 | 294 | 2.6 | 7.0 | 0.00 | 0.00 | 0.00 | 34 | 1011.0 |
| 20260504003706 | 79 | 310 | 1.7 | 7.0 | 0.00 | 0.00 | 0.00 | 34 | 1011.0 |
| 20260504003204 | 79 | 314 | 1.7 | 7.0 | 0.00 | 0.00 | 0.00 | 36 | 1011.0 |
| 20260504002704 | 79 | 290 | 3.5 | 7.8 | 0.00 | 0.00 | 0.00 | 32 | 1011.0 |
| 20260504002205 | 79 | 320 | 3.5 | 7.0 | 0.00 | 0.00 | 0.00 | 34 | 1011.1 |
| 20260504001705 | 79 | 329 | 2.6 | 7.8 | 0.00 | 0.00 | 0.00 | 35 | 1011.1 |
| 20260504000204 | 79 | 283 | 2.6 | 6.1 | 0.00 | 0.00 | 0.00 | 35 | 1011.2 |
| 20260503235204 | 79 | 293 | 1.7 | 4.3 | 0.00 | 0.00 | 0.00 | 37 | 1011.3 |
| 20260503234704 | 78 | 263 | 2.6 | 6.1 | 0.00 | 0.00 | 0.00 | 35 | 1011.3 |
| 20260503234204 | 78 | 326 | 3.5 | 5.2 | 0.00 | 0.00 | 0.00 | 35 | 1011.3 |
| 20260503233706 | 78 | 316 | 4.3 | 7.8 | 0.00 | 0.00 | 0.00 | 37 | 1011.4 |
| 20260503233203 | 78 | 340 | 4.3 | 8.7 | 0.00 | 0.00 | 0.00 | 34 | 1011.5 |
| 20260503231204 | 78 | 293 | 2.6 | 5.2 | 0.00 | 0.00 | 0.00 | 38 | 1011.7 |
| 20260503230705 | 78 | 275 | 4.3 | 7.0 | 0.00 | 0.00 | 0.00 | 40 | 1011.7 |
| 20260503230204 | 77 | 294 | 1.7 | 7.0 | 0.00 | 0.00 | 0.00 | 41 | 1011.8 |
| 20260503225704 | 77 | 281 | 2.6 | 7.0 | 0.00 | 0.00 | 0.00 | 44 | 1011.9 |
| 20260503225204 | 77 | 335 | 3.5 | 7.0 | 0.00 | 0.00 | 0.00 | 41 | 1012.0 |
| 20260503224704 | 77 | 305 | 1.7 | 6.1 | 0.00 | 0.00 | 0.00 | 41 | 1012.0 |
| 20260503224206 | 77 | 285 | 2.6 | 7.0 | 0.00 | 0.00 | 0.00 | 40 | 1012.1 |
| 20260503223203 | 77 | 245 | 2.6 | 6.1 | 0.00 | 0.00 | 0.00 | 43 | 1012.3 |
| 20260503222705 | 77 | 257 | 1.7 | 5.2 | 0.00 | 0.00 | 0.00 | 42 | 1012.4 |
| 20260503222206 | 77 | 20 | 0.9 | 2.6 | 0.00 | 0.00 | 0.00 | 44 | 1012.5 |
| 20260503221205 | 76 | 347 | 3.5 | 6.1 | 0.00 | 0.00 | 0.00 | 42 | 1012.6 |
| 20260503220205 | 76 | 265 | 2.6 | 5.2 | 0.00 | 0.00 | 0.00 | 45 | 1012.8 |
| 20260503215703 | 75 | 46 | 2.6 | 4.3 | 0.00 | 0.00 | 0.00 | 46 | 1012.8 |
| 20260503215205 | 75 | 46 | 2.6 | 5.2 | 0.00 | 0.00 | 0.00 | 44 | 1012.9 |